Weather in Gorodets

Russia / Nizhny Novgorod Oblast'     56°38′41″N   43°28′20″E
temp.,
°C
wind,
m/s
gust,
m/s
humid.,
%
clouds,
%
prec.,
mm/h
press.,
hPa
HPBL,
m
19 september, sun
sun1900:00+4ne35726 0.0 1027159
03:00+3ne2379100 0.0 1027130
06:00+2ne348498 0.0 1027145
09:00+5ene336359 0.0 1027394
12:00+8ene2346100 0.0 10271080
15:00+10ne2342100 0.0 10261197
18:00+7ene4658100 0.0 1025411
21:00+5ene4871100 0.0 1026255
20 september, mon
mon2000:00+4ene51075100 0.0 1026315
03:00+3ene71275100 0.0 1026419
06:00+3e61274100 0.0 1026496
09:00+4e71166100 0.0 1027605
12:00+6e7959100 0.0 1026857
15:00+7e6954100 0.0 10251057
18:00+7e61053100 0.0 10251084
21:00+7e61155100 0.0 1024879
21 september, tue
tue2100:00+6ese71258100 0.0 1023875
03:00+6e71268100 0.0 1022898
06:00+6e81470100 0.0 1021831
09:00+6e81481100 0.8 1021754
12:00+6e81482100 0.9 1021751
15:00+6e81481100 1.8 1020791
18:00+7e81585100 0.9 1019802
21:00+7e71483100 2.0 1019817
22 september, wed
wed2200:00+7e71377100 0.0 1017725
03:00+7e61371100 0.0 1016666
06:00+7e71481100 0.9 1015591
09:00+7e71582100 2.3 1014651
12:00+6ene61388100 4.0 1014733
15:00+7e71392100 7.3 1014854
18:00+8e61095100 0.4 1015573
21:00+9ese4896100 0.6 1016403
23 september, thu
thu2300:00+9ese4797100 0.1 1016274
03:00+9e4897100 0.3 1016277
06:00+9ese4995100 0.1 1016293
09:00+11se4794100 0.3 1017340
12:00+10se3598100 1.6 1017340
15:00+12s358792 2.5 1017497
18:00+10s358699 0.5 1018217
21:00+8s3490100 0.5 1018124